Weather History for LICZ - October, 2013

Change the Weather History Date:

Wednesday, October 9, 2013

  Actual Average Record
Temperature  
Mean Temperature 73 °F -  
Max Temperature 86 °F 74 °F 90 °F (2012)
Min Temperature 60 °F 54 °F 50 °F (2011)
Cooling Degree Days 8    
Growing Degree Days 23 (Base 50)    
Moisture  
Dew Point 63 °F    
Average Humidity 81    
Maximum Humidity 100    
Minimum Humidity 29    
Precipitation  
Precipitation 0.00 in 0.09 in - ()
Sea Level Pressure  
Sea Level Pressure 30.09 in    
Wind  
Wind Speed 4 mph ()    
Max Wind Speed 13 mph    
Max Gust Speed -    
Visibility 6.1 miles    
Events      
Averages and records for this station are not official NWS values.
T = Trace of Precipitation, MM = Missing Value Source: Averaged Metar Reports

Daily Weather History Graph

Daily Weather History Graph

Search for Another Location

Airport or City:

Trip Planner

Search our weather history database for the weather conditions in past years. The results will help you decide how hot, cold, wet, or windy it might be!

Date:

Astronomy

Oct. 09, 2013 Rise Set
Actual Time 7:02 AM CEST 6:31 PM CEST
Civil Twilight 6:36 AM CEST 6:57 PM CEST
Nautical Twilight 6:06 AM CEST 7:28 PM CEST
Astronomical Twilight 5:36 AM CEST 7:58 PM CEST
Moon 11:36 AM CEST (10/9) 9:53 PM CEST (10/9)
Length of Visible Light 12h 21m
Length of Day
11h 28m
Waxing Crescent, 22% of the Moon is Illuminated
Oct 9
Waxing Crescent
Oct 12
First Quarter
Oct 19
Full
Oct 27
Last Quarter
Nov 3
New

Hourly Weather History & Observations

Time (CEST) Temp. Heat Index Dew Point Humidity Pressure Visibility Wind Dir Wind Speed Gust Speed Precip Events Conditions
12:55 AM 64.4 °F - 64.4 °F 100% 30.15 in - WNW 4.6 mph - N/A   Clear
2:00 AM 64 °F - 64 °F 100% 30.16 in 6 mi WNW 4.6 mph - -   Partly Cloudy
2:55 AM 62.6 °F - 62.6 °F 100% 30.15 in 6.2 mi WNW 4.6 mph - N/A   Scattered Clouds
3:55 AM 62.6 °F - 62.6 °F 100% 30.15 in 6.2 mi West 4.6 mph - N/A   Scattered Clouds
4:55 AM 60.8 °F - 60.8 °F 100% 30.12 in - West 4.6 mph - N/A   Clear
5:00 AM 62 °F - 62 °F 98% 30.14 in 6 mi West 4.6 mph - -   Partly Cloudy
5:55 AM 60.8 °F - 60.8 °F 100% 30.12 in - WSW 4.6 mph - N/A   Clear
6:55 AM 60.8 °F - 60.8 °F 100% 30.12 in 6.2 mi West 4.6 mph - N/A   Mostly Cloudy
7:55 AM 62.6 °F - 62.6 °F 100% 30.12 in 6.2 mi West 3.5 mph - N/A   Partly Cloudy
8:00 AM 62 °F - 62 °F 100% 30.14 in 6 mi West 3.5 mph - -   Scattered Clouds
8:55 AM 68.0 °F - 66.2 °F 94% 30.12 in - WNW 4.6 mph - N/A   Clear
9:55 AM 73.4 °F - 69.8 °F 88% 30.15 in - West 6.9 mph - N/A   Clear
10:55 AM 77.0 °F - 66.2 °F 69% 30.12 in - SW 3.5 mph - N/A   Clear
11:00 AM 77 °F - 67 °F 63% 30.14 in 6 mi SW 3.5 mph - -  
11:55 AM 78.8 °F - 68.0 °F 69% 30.12 in - WSW 3.5 mph - N/A   Clear
12:55 PM 80.6 °F 80.5 °F 55.4 °F 42% 30.09 in - NNW 2.3 mph - N/A   Clear
1:55 PM 77.0 °F - 50.0 °F 39% 30.06 in 6.2 mi South 8.1 mph - N/A   Scattered Clouds
2:00 PM 77 °F - 51 °F 29% 30.07 in 6 mi South 8.1 mph - -   Scattered Clouds
2:55 PM 82.4 °F 81.7 °F 55.4 °F 39% 30.04 in 6.2 mi SSW 3.5 mph - N/A   Scattered Clouds
3:55 PM 82.4 °F 82.0 °F 57.2 °F 42% 30.04 in 6.2 mi West 11.5 mph - N/A   Scattered Clouds
4:55 PM 82.4 °F 82.0 °F 57.2 °F 42% 30.04 in 6.2 mi WSW 8.1 mph - N/A   Scattered Clouds
5:00 PM 82 °F - 57 °F 31% 30.04 in 6 mi WSW 8.1 mph - -   Partly Cloudy
5:55 PM 77.0 °F - 68.0 °F 74% 30.04 in 6.2 mi NE 12.7 mph - N/A   Scattered Clouds
6:55 PM 73.4 °F - 73.4 °F 100% 30.04 in 6.2 mi ENE 5.8 mph - N/A   Scattered Clouds
7:55 PM 73.4 °F - 73.4 °F 100% 30.06 in 6.2 mi NNE 4.6 mph - N/A   Partly Cloudy
8:00 PM 74 °F - 74 °F 100% 30.07 in 6 mi NNE 4.6 mph - -   Scattered Clouds
8:55 PM 69.8 °F - 69.8 °F 100% 30.06 in 6.2 mi NE 3.5 mph - N/A   Partly Cloudy
9:55 PM 68.0 °F - 68.0 °F 100% 30.06 in 6.2 mi South 2.3 mph - N/A   Partly Cloudy
10:55 PM 66.2 °F - 66.2 °F 100% 30.06 in 6.2 mi West 3.5 mph - N/A   Partly Cloudy
11:00 PM 66 °F - 66 °F 99% 30.08 in 6 mi West 3.5 mph - -   Scattered Clouds
11:55 PM 64.4 °F - 64.4 °F 100% 30.06 in 6.2 mi NNW 3.5 mph - N/A   Partly Cloudy